Regional Weather Roundup
Issued by NWS Jackson, KY

Home | Current Version | Previous Version | Graphics & Text | Print | Product List | Glossary On
Versions: 1 2 3 4 5 6 7 8 9 10 11 12 13 14 15 16 17 18 19 20 21 22 23 24 25 26 27
000
ASUS43 KJKL 301310
RWRJKL

EAST KENTUCKY HOURLY WEATHER ROUNDUP
NATIONAL WEATHER SERVICE JACKSON KY
900 AM EDT FRI SEP 30 2016

NOTE: "FAIR" INDICATES FEW OR NO CLOUDS BELOW 12,000 FEET WITH
NO SIGNIFICANT WEATHER AND/OR OBSTRUCTIONS TO VISIBILITY.

* THESE REPORTS ARE NOT UNDER NWS QUALITY CONTROL AND MAY NOT
  REPORT WEATHER SUCH AS PRECIPITATION AND FOG.

KYZ079-080-083-085-087-088-110-112-115-119-120-301400
...EASTERN KENTUCKY...

CITY           SKY/WX    TMP DP  RH WIND       PRES   REMARKS
JACKSON        FOG       53  52  96 CALM      30.03F VSB<1/4
LONDON         FOG       50  49  96 W5        30.06R VSB 1/4
SOMERSET*      CLOUDY    52  52 100 CALM      30.07S FOG
MONTICELLO*    CLOUDY    51  51 100 NW8       30.07S FOG
WILLIAMSBURG*  CLOUDY    48  48 100 S5        30.06S VSB<1/4
MIDDLESBORO*   CLOUDY    52  51  95 CALM      30.06S
HARLAN APT*    CLOUDY    52  50  93 CALM      30.04F
PIKE CO APT*   FOG       54  54 100 SW3       30.03S VSB<1/4
MOREHEAD APT*  FOG       55  54  94 SW6       30.05S VSB 1
ASHLAND*       CLOUDY    59  57  94 W3        30.00S
$$

KYZ035-036-041-042-044-050-067-078-099-301400
...CENTRAL KENTUCKY...

CITY           SKY/WX    TMP DP  RH WIND       PRES   REMARKS
MT STERLING*   FOG       52  52 100 CALM      30.06S VSB 1/4
FLEMING/MASON* CLOUDY    56  55  99 SW5       30.04S FOG
DANVILLE*      FOG       50  50 100 S6        30.06S VSB 1/2
LEXINGTON      CLOUDY    54  51  90 SW6       30.04S FOG
FRANKFORT      CLOUDY    55  52  89 S5        30.03S
LOUISVILLE     LGT RAIN  57  54  89 NE5       30.03S FOG
LEBANON*       FOG       50  50 100 SE6       30.05R VSB 1/4
GLASGOW*       FOG       51  51 100 CALM      30.05R VSB 1/4
BOWLING GREEN  LGT RAIN  54  53  97 S3        30.05S FOG
$$

KYZ091>093-OHZ055-061-077-WVZ005-015-034-035-042-301400
...SOUTHERN OHIO/WEST VIRGINIA...

CITY           SKY/WX    TMP DP  RH WIND       PRES   REMARKS
COVINGTON      CLOUDY    59  57  93 E6        30.02S
COLUMBUS       CLOUDY    61  61 100 SE9       30.04F
DAYTON         LGT RAIN  60  59  96 E6        30.04R FOG
WILMINGTON     CLOUDY    57  57 100 CALM      30.03S
HUNTINGTON     CLOUDY    58  56  93 CALM      30.01F
CHARLESTON     CLOUDY    60  58  92 CALM      30.01R FOG
PINEVILLE*     CLOUDY    58  55  91 MISG      30.06S FOG
BECKLEY        MOSUNNY   60  57  89 E13       30.02S
BLUEFIELD      PTSUNNY   61  57  87 SE9G23    30.04S
LOGAN CO APT*  FOG       55  55 100 CALM      30.02R VSB<1/4
$$

VAZ002-007-008-TNZ017-027-036-066-071-301400
...SOUTHWEST VIRGINIA/EAST TENNESSEE...

CITY           SKY/WX    TMP DP  RH WIND       PRES   REMARKS
WISE*          FOG       52  52 100 CALM      30.05S VSB<1/4
JONESVILLE*    PTSUNNY   54  50  87 CALM      30.07S
ABINGDON*      CLOUDY    57  57  99 CALM      30.03R FOG
BRISTOL        CLOUDY    57  54  89 SW6       30.03S
MORRISTOWN*    CLOUDY    54  52  94 S3        30.03S
SEVIERVILLE*   CLOUDY    54  46  76 W5        30.04S
KNOXVILLE      MOSUNNY   53  50  89 S5        30.04S
OAK RIDGE      PTSUNNY   51  47  86 CALM      30.07R
CROSSVILLE     CLOUDY    49  47  93 CALM      30.07R FOG
NASHVILLE      CLOUDY    56  54  93 W7        30.07R FOG
$$

...KEY TO REMARKS...
VSB - VISIBILITY IN MILES
WCI - WIND CHILL INDEX
HX  - HEAT INDEX

$$




USA.gov is the U.S. government's official web portal to all federal, state and local government web resources and services.